Wind_Speed
40 40 40 42 44 45 46 48 49 50 50 51 51 51 53 56 58 58 59 61 61 59 56 55 53 51 49 49 48 47 45 43 41 38 36 33 30 27 24 22 19 18 18
42 42 43 45 47 48 50 51 52 53 54 54 55 55 55 57 59 61 62 64 65 65 62 60 58 54 53 51 50 49 48 46 44 42 39 36 33 30 27 24 21 19 18
43 45 46 48 50 52 53 55 56 57 57 58 58 59 59 59 60 61 64 66 67 68 67 66 63 60 56 54 53 51 50 49 47 45 42 39 37 33 30 27 24 22 20
45 47 49 50 52 53 55 56 57 57 57 58 59 59 60 61 61 62 64 67 68 69 70 69 69 66 63 59 56 54 53 52 50 48 46 42 39 36 33 29 27 25 22
46 48 49 51 53 54 55 55 56 56 56 55 56 58 59 61 62 63 64 66 68 68 70 71 71 71 70 65 60 57 55 53 52 50 49 46 42 39 36 33 29 27 25
46 48 50 52 52 53 54 54 52 51 50 51 51 53 56 58 61 62 63 65 66 66 67 69 72 73 72 71 67 62 58 55 53 52 51 48 45 42 39 36 32 29 26
48 50 51 52 51 52 51 50 48 46 45 44 45 47 49 52 55 58 61 63 63 63 64 65 68 71 73 73 70 67 62 58 56 54 52 51 48 45 42 39 36 32 29
48 50 51 50 49 49 49 47 44 41 38 37 38 39 42 45 49 54 57 59 59 59 59 60 61 65 69 72 72 70 66 63 59 56 54 51 50 48 46 43 39 35 31
48 49 50 49 48 47 46 43 39 36 32 30 29 31 34 37 41 47 51 54 54 54 55 55 55 57 61 67 71 70 68 65 62 59 56 53 52 50 47 44 40 37 33
48 49 49 47 46 45 43 40 37 32 28 24 22 23 26 30 34 40 44 47 49 49 50 50 50 52 54 58 64 68 69 66 61 60 58 55 52 50 48 45 42 39 36
47 47 47 45 44 44 41 38 35 29 24 19 16 16 19 23 28 33 36 40 43 45 46 46 46 47 49 51 56 62 66 68 65 59 57 57 54 51 49 45 42 40 37
46 46 45 43 43 41 40 37 33 28 22 16 11 10 13 17 23 28 31 35 38 40 41 42 43 42 44 47 50 55 60 64 66 61 56 53 52 51 50 47 43 41 38
45 44 43 42 41 39 37 35 32 26 20 15 9 5 7 12 18 23 27 31 34 36 37 39 40 40 40 42 45 48 52 56 60 61 57 51 49 49 49 47 44 41 39
44 43 42 40 39 37 35 33 30 26 20 14 9 4 5 9 13 18 23 27 30 33 34 35 37 37 38 38 39 42 46 49 53 55 56 53 50 47 45 46 44 41 39
43 42 41 39 38 35 33 31 28 25 20 14 8 3 4 8 11 15 19 23 26 29 31 32 34 35 35 35 35 37 40 44 48 51 52 53 51 47 45 45 44 41 39
42 41 40 38 36 34 32 29 26 24 20 15 9 4 3 7 11 14 17 20 24 27 29 30 31 33 34 34 34 34 37 41 45 48 50 50 50 48 46 45 44 42 39
40 40 39 37 35 33 30 28 25 22 19 15 10 6 3 5 9 13 16 19 22 25 27 28 29 31 31 32 33 34 36 40 45 47 48 48 48 48 46 45 43 41 39
39 38 37 36 35 32 29 26 24 21 18 14 10 6 2 3 7 10 13 16 19 22 24 26 27 29 30 31 31 33 35 39 44 47 48 47 47 47 46 44 42 41 39
37 37 36 35 34 32 29 25 23 21 18 14 10 6 3 3 7 10 12 15 17 20 23 25 26 27 28 29 30 32 34 38 44 45 47 49 48 46 45 43 42 40 38
35 35 35 34 34 32 28 25 23 20 18 13 9 5 2 3 6 10 13 15 17 20 22 23 24 25 25 27 28 30 35 39 44 45 46 48 48 45 44 43 41 39 37
33 34 34 34 33 32 29 26 24 21 18 15 10 5 0 3 6 9 12 15 17 20 21 22 23 23 23 25 27 29 33 39 43 44 46 46 46 45 44 42 40 39 37
31 31 32 32 31 31 29 27 25 21 19 17 12 7 4 3 5 7 11 14 16 19 20 20 21 21 21 23 27 30 32 37 41 44 46 44 43 44 42 40 39 38 36
28 29 30 30 30 29 28 27 24 22 20 18 15 11 8 5 5 7 10 13 15 17 18 18 19 20 21 23 25 29 32 37 41 42 42 42 42 41 40 38 37 36 34
25 26 27 27 28 28 27 26 24 23 22 21 20 17 14 11 11 11 11 12 14 16 17 17 18 19 20 21 23 27 31 36 39 38 39 39 39 37 35 34 34 33 32
22 22 24 24 25 25 25 25 24 24 23 22 21 20 18 16 15 15 15 15 15 17 17 17 17 19 20 21 22 24 28 32 36 37 37 37 35 34 33 32 31 30 29
19 19 20 21 22 23 23 22 22 22 22 22 21 20 19 19 18 18 19 18 19 18 19 19 19 21 22 22 24 26 28 30 33 35 34 33 32 30 29 28 27 26 25
Wind_Direction
304 301 297 295 293 291 289 286 283 279 274 270 266 262 257 252 248 245 242 240 239 237 236 235 235 233 230 228 228 227 226 227 227 226 226 227 229 233 238 245 254 264 271
306 303 301 298 296 294 292 289 285 280 275 271 266 262 258 253 249 245 243 239 237 237 235 233 234 232 230 228 228 227 227 226 227 227 226 226 227 230 235 241 249 260 268
309 307 305 302 300 298 295 292 288 282 276 271 266 262 257 253 249 245 242 240 238 236 235 233 232 231 230 228 227 227 227 227 226 227 227 226 227 229 233 239 246 255 263
312 311 309 307 305 302 299 296 291 286 279 272 266 261 256 251 248 245 242 239 237 236 235 233 232 231 229 229 227 227 227 227 226 226 227 227 227 229 232 237 243 250 257
316 315 313 311 309 306 303 300 295 290 283 275 267 260 255 250 246 243 241 240 238 236 234 233 232 231 231 230 228 227 226 227 226 226 227 227 227 228 230 234 240 246 252
321 319 318 316 313 310 307 304 299 293 286 277 270 261 255 250 245 241 239 238 237 236 234 233 232 232 231 231 230 228 227 227 226 226 226 227 226 227 229 232 236 242 247
325 323 322 321 318 315 313 310 305 298 289 280 271 262 255 248 243 238 236 234 234 234 233 233 232 232 231 231 231 230 229 228 227 225 225 226 225 225 227 229 233 237 242
328 327 326 325 324 321 319 316 311 305 294 284 273 262 253 247 241 236 233 232 231 231 232 231 231 232 231 230 230 230 230 229 227 227 225 224 224 224 225 227 230 234 239
331 330 330 329 329 328 327 324 320 313 303 290 276 262 251 244 239 233 229 228 228 229 229 230 230 230 230 229 229 230 230 230 229 227 225 224 223 223 224 226 227 231 235
334 333 333 333 333 334 334 332 329 322 313 299 279 264 250 241 235 229 225 224 224 223 225 226 227 228 228 228 228 228 229 229 228 228 226 224 223 221 222 223 224 227 231
337 337 337 337 337 338 338 338 337 333 325 312 289 266 246 236 229 223 220 219 218 219 221 223 224 226 226 226 226 227 227 228 228 227 226 225 224 222 221 221 222 224 228
340 341 341 341 341 342 343 344 343 342 337 330 308 271 242 231 222 217 214 213 213 215 218 220 221 222 224 225 224 225 226 227 228 229 228 226 223 224 223 221 221 222 224
343 344 344 345 345 345 346 348 349 348 345 341 330 295 240 221 215 211 211 212 212 212 215 217 218 220 221 222 223 224 223 224 226 228 228 225 222 222 221 220 220 220 221
345 346 346 347 347 347 348 349 352 353 351 346 340 308 237 218 212 209 210 209 209 210 212 214 215 217 219 221 222 223 221 219 220 222 223 223 221 218 217 218 218 220 220
347 347 348 348 348 348 349 350 352 355 357 355 353 328 228 213 209 206 205 205 206 206 208 211 213 215 216 218 220 220 219 216 214 215 217 218 219 219 215 213 215 218 219
349 350 350 350 350 350 350 351 352 354 355 355 352 337 251 214 207 205 205 204 203 203 205 208 210 212 214 216 217 219 218 214 211 209 212 213 216 216 213 211 211 214 217
351 352 353 353 353 353 353 353 354 354 355 353 350 338 287 220 207 205 204 203 200 200 203 205 208 210 214 216 217 218 215 212 208 205 206 208 209 209 209 209 209 212 216
353 355 356 356 357 357 356 356 356 357 355 351 348 340 304 226 206 198 197 197 197 198 200 202 205 208 212 214 214 213 211 209 205 203 202 203 204 206 207 208 208 210 214
354 357 358 359 0 0 359 358 357 357 357 353 349 337 295 224 202 195 192 192 193 195 196 198 201 206 210 210 210 209 207 204 201 199 199 200 200 202 204 206 207 210 213
355 358 0 1 3 4 4 3 2 2 359 357 352 338 296 216 198 196 194 191 191 192 194 196 199 203 206 206 207 207 203 200 197 195 194 197 198 199 201 204 207 210 213
356 359 2 4 5 7 9 9 9 9 8 6 6 9 26 182 185 187 190 191 192 192 194 198 200 203 207 210 209 203 197 196 193 189 188 192 196 197 199 202 206 208 212
357 0 4 7 8 9 11 14 16 19 22 23 26 37 62 131 163 174 181 186 190 193 195 197 200 204 205 203 199 194 191 190 188 186 186 189 192 195 197 200 204 207 212
356 0 5 9 11 13 17 21 24 27 29 33 40 48 64 94 132 155 165 171 177 182 186 192 195 194 193 191 189 187 186 185 184 184 184 186 190 193 196 199 203 207 211
355 360 5 9 13 17 22 26 31 35 37 40 46 54 66 84 104 120 132 143 154 164 168 173 178 180 181 182 180 180 183 184 182 182 182 184 187 191 195 199 203 207 212
353 359 4 9 14 20 25 30 36 41 45 48 52 58 66 78 93 106 115 126 135 142 146 151 155 160 163 168 170 170 171 173 176 178 180 183 186 191 195 198 203 206 210
352 357 3 8 15 21 27 33 38 43 49 54 58 63 71 80 90 101 109 115 120 123 128 135 142 150 155 157 157 158 161 166 171 175 178 182 185 189 192 197 202 207 211
Height
5718 5712 5707 5702 5696 5691 5687 5683 5679 5677 5674 5673 5673 5673 5675 5677 5680 5684 5689 5693 5699 5704 5710 5717 5723 5728 5734 5740 5747 5753 5759 5765 5771 5776 5781 5786 5790 5794 5797 5800 5802 5803 5804
5706 5700 5694 5688 5681 5675 5670 5665 5661 5658 5655 5653 5653 5654 5655 5657 5660 5665 5670 5675 5681 5687 5694 5701 5708 5714 5720 5727 5734 5741 5748 5755 5761 5767 5772 5777 5782 5787 5790 5793 5795 5797 5798
5694 5687 5680 5672 5665 5658 5651 5645 5640 5636 5633 5631 5630 5631 5633 5636 5639 5644 5649 5655 5662 5669 5676 5684 5691 5699 5707 5714 5721 5729 5736 5743 5750 5756 5762 5768 5774 5779 5783 5786 5789 5791 5793
5681 5673 5665 5656 5648 5640 5631 5624 5617 5612 5608 5606 5606 5607 5609 5613 5617 5623 5628 5635 5642 5649 5658 5666 5674 5682 5691 5699 5707 5715 5723 5731 5738 5745 5752 5758 5764 5770 5775 5779 5782 5785 5787
5669 5660 5650 5641 5631 5622 5612 5603 5595 5588 5583 5581 5580 5582 5585 5589 5594 5601 5608 5614 5621 5630 5639 5648 5657 5666 5675 5683 5692 5701 5710 5718 5726 5734 5741 5748 5755 5761 5766 5771 5774 5777 5780
5657 5647 5636 5626 5615 5604 5593 5583 5574 5566 5560 5557 5556 5557 5560 5565 5571 5578 5586 5594 5602 5611 5620 5629 5639 5649 5658 5667 5677 5686 5696 5705 5714 5722 5730 5737 5745 5751 5757 5762 5766 5770 5774
5645 5634 5623 5612 5600 5588 5576 5565 5555 5547 5540 5536 5534 5535 5538 5543 5549 5557 5565 5574 5584 5593 5603 5612 5621 5631 5642 5652 5662 5672 5681 5691 5701 5709 5717 5726 5733 5741 5747 5753 5758 5762 5766
5634 5622 5611 5599 5587 5574 5562 5550 5539 5530 5523 5519 5517 5517 5520 5524 5530 5538 5547 5557 5568 5578 5587 5596 5606 5615 5626 5636 5647 5658 5668 5678 5689 5697 5706 5714 5721 5729 5736 5743 5749 5754 5759
5624 5612 5600 5587 5576 5563 5551 5539 5528 5518 5511 5506 5503 5503 5506 5510 5515 5523 5532 5543 5554 5565 5574 5583 5592 5602 5612 5623 5634 5645 5656 5666 5675 5685 5694 5702 5710 5718 5726 5734 5741 5746 5751
5615 5603 5590 5578 5566 5554 5542 5530 5519 5510 5502 5497 5494 5494 5496 5500 5505 5512 5521 5532 5543 5554 5564 5573 5582 5591 5599 5608 5619 5630 5641 5652 5662 5673 5682 5690 5699 5708 5716 5724 5731 5737 5742
5607 5595 5583 5571 5559 5547 5535 5524 5514 5504 5497 5491 5489 5488 5490 5493 5498 5505 5513 5523 5533 5543 5553 5563 5571 5580 5589 5598 5607 5617 5627 5639 5650 5660 5670 5680 5689 5698 5707 5715 5722 5729 5735
5600 5588 5577 5565 5553 5542 5532 5521 5511 5502 5495 5489 5487 5486 5487 5490 5494 5501 5508 5517 5526 5536 5545 5554 5563 5572 5580 5589 5597 5605 5615 5626 5638 5649 5660 5670 5679 5689 5697 5706 5713 5720 5727
5595 5583 5572 5561 5550 5539 5529 5519 5510 5501 5495 5490 5487 5486 5487 5489 5493 5498 5505 5512 5521 5529 5538 5547 5555 5564 5572 5580 5588 5596 5605 5615 5627 5638 5650 5660 5670 5679 5687 5696 5704 5711 5718
5590 5579 5569 5558 5547 5537 5528 5519 5510 5502 5496 5491 5488 5487 5488 5490 5493 5497 5503 5509 5516 5525 5533 5541 5549 5557 5565 5573 5580 5588 5597 5606 5617 5628 5639 5650 5659 5669 5678 5687 5696 5704 5710
5587 5576 5566 5556 5546 5536 5527 5519 5511 5504 5498 5494 5491 5489 5489 5491 5494 5497 5502 5508 5514 5521 5529 5536 5544 5552 5559 5567 5574 5581 5589 5598 5608 5618 5629 5640 5651 5660 5670 5679 5688 5696 5703
5585 5575 5564 5554 5545 5536 5527 5519 5512 5506 5500 5496 5493 5491 5491 5492 5494 5497 5501 5506 5512 5518 5525 5532 5539 5547 5554 5561 5568 5575 5582 5591 5600 5610 5621 5631 5642 5652 5663 5672 5680 5688 5695
5583 5573 5563 5554 5544 5536 5528 5520 5513 5507 5502 5498 5494 5493 5492 5492 5494 5497 5500 5505 5510 5515 5522 5528 5535 5542 5548 5555 5562 5568 5575 5583 5593 5603 5613 5624 5634 5644 5655 5664 5673 5681 5688
5582 5573 5563 5554 5545 5536 5528 5521 5515 5508 5503 5499 5496 5494 5493 5493 5494 5496 5500 5504 5508 5513 5519 5525 5531 5537 5543 5550 5556 5562 5569 5577 5586 5595 5606 5617 5627 5637 5648 5657 5666 5674 5682
5582 5573 5563 5554 5546 5537 5529 5522 5516 5510 5504 5500 5497 5495 5494 5494 5495 5497 5500 5503 5507 5512 5517 5522 5528 5533 5539 5545 5551 5557 5563 5571 5579 5588 5599 5611 5621 5631 5642 5651 5660 5668 5675
5582 5573 5565 5556 5547 5539 5531 5524 5517 5511 5506 5501 5498 5496 5494 5494 5495 5497 5500 5503 5507 5511 5516 5520 5525 5530 5535 5541 5546 5551 5558 5565 5573 5583 5593 5605 5616 5626 5636 5646 5654 5662 5669
5583 5575 5566 5558 5549 5541 5533 5526 5520 5513 5507 5503 5499 5497 5495 5495 5496 5497 5500 5503 5506 5511 5515 5519 5524 5528 5533 5537 5542 5546 5553 5561 5570 5579 5590 5601 5611 5622 5632 5640 5649 5656 5663
5583 5576 5568 5560 5552 5544 5537 5529 5522 5516 5510 5505 5501 5499 5497 5497 5497 5498 5500 5503 5507 5510 5514 5518 5523 5527 5531 5535 5539 5545 5551 5559 5568 5578 5589 5599 5609 5618 5627 5636 5644 5651 5658
5584 5578 5570 5563 5556 5548 5541 5533 5527 5521 5515 5510 5505 5502 5500 5499 5499 5500 5501 5504 5507 5511 5515 5518 5522 5526 5530 5534 5539 5545 5551 5559 5568 5577 5587 5597 5607 5616 5624 5632 5640 5647 5653
5585 5579 5573 5566 5559 5552 5546 5539 5532 5526 5521 5516 5512 5508 5505 5503 5503 5503 5505 5506 5509 5512 5516 5519 5523 5527 5532 5536 5541 5546 5553 5561 5569 5578 5587 5596 5605 5614 5622 5630 5636 5642 5648
5586 5581 5575 5569 5563 5557 5551 5545 5539 5533 5528 5524 5520 5516 5513 5511 5510 5510 5511 5512 5514 5517 5520 5523 5526 5530 5535 5539 5544 5549 5555 5563 5572 5580 5589 5598 5606 5613 5621 5627 5633 5639 5644
5586 5581 5577 5572 5567 5561 5556 5551 5546 5541 5536 5532 5528 5525 5523 5521 5519 5519 5519 5520 5522 5524 5526 5529 5532 5536 5540 5544 5549 5555 5561 5568 5576 5584 5592 5599 5606 5613 5619 5625 5631 5636 5641